KUIPER-00033

导读

KUIPER-00033是美国亚马逊柯伊伯(Kuiper)星座项目中的一颗低轨互联网卫星,于2025年4月28日发射。柯伊伯项目计划发射数千颗卫星,目标为全球尤其是偏远区域提供高速低延迟且可负担的卫星互联网接入。该卫星配备多波束相控阵天线与激光星间链路,能按需调配通信容量,将助力亚马逊低轨卫星星座组网,和星链形成商业航天领域的竞争,目前星座正加速部署推进中。

Basic Information
目录编号:
63746
目录名称:
KUIPER-00033
国际标识:
2025-088Y
轨道中心:
EARTH
卫星名称:
KUIPER-00033
卫星全名:
KUIPER-00033
卫星状态:
在轨 (已飞行411 天)
发射日期:
2025-04-28 UTC
国别 :
美国 (US)
星等 :
--
Orbit Information
数据来源 国际轨道数据 AOE轨道数据
星历时间 2026-06-12T08:01:27+0800
1天前
查看轨道信息
2026-06-13T06:00:00+0800
5小时前
查看轨道信息
半长轴 7007.667km 7007.692km
偏心率 0.0000699 0.0000747
轨道倾角 51.901° 51.901°
近地点辐角 98.950° 83.242°
升交点赤经 68.535° 64.488°
平近点角 261.154° 118.202°
近地点 629.04km 629.031km
远地点 630.02km 630.079km
周期 97.302分钟 97.302分钟
每日圈数 14.799351 14.79927
Detailed Information
使用方式:
暂无
2D Orbit Map
3D Orbit Map
Orbit Altitude Analysis Chart
Orbit Inclination Analysis Chart
Orbit Comprehensive Analysis Chart
View Comprehensive Chart